Lid_Strength_Index
10 8 4 3 2 2 2 1 1 1 1 -0 -1 -2 -2 -2 -2 -2 -2 -1 -1 -1 -1 -1 -2 -2 -2 -2 -2 -2 -2 -2 -2 -2 -2 -2 -2 -2 -2 -3 -2 -1 -2
8 7 4 3 2 3 2 2 2 1 1 1 -0 -1 -2 -2 -2 -2 -2 -2 -1 -1 -1 -2 -2 -2 -2 -2 -2 -2 -2 -2 -2 -2 -2 -2 -2 -2 -2 -3 -3 -1 -2
9 8 6 3 3 2 2 2 2 2 2 1 1 -0 -1 -2 -2 -2 -2 -1 -1 -1 -1 -2 -2 -2 -2 -2 -2 -2 -2 -2 -2 -2 -2 -1 -1 -2 -2 -2 -2 -2 -2
8 6 4 2 1 1 1 1 1 1 1 1 1 0 0 -1 -2 -2 -2 -2 -2 -1 -2 -1 -1 -1 -2 -2 -2 -2 -2 -2 -2 -2 -1 -1 -1 -2 -2 -2 -2 -2 -2
9 7 5 3 2 2 2 1 1 1 0 0 0 1 1 0 -0 -1 -2 -2 -1 -2 -2 -2 -1 -1 -1 -1 -2 -2 -2 -2 -1 -1 -1 -1 -1 -1 -2 -2 -2 -2 -2
10 9 5 4 3 3 2 2 1 1 1 0 -0 -0 -0 1 1 0 -0 -1 -1 -1 -2 -2 -1 -1 -1 -2 -1 -2 -2 -2 -1 -1 -1 -1 -1 -2 -2 -2 -2 -2 -2
11 10 9 5 4 3 3 3 2 2 1 1 1 0 0 -0 1 1 1 -0 -1 -1 -1 -1 -1 -1 -1 -2 -1 -1 -2 -1 -1 -1 -1 -1 -1 -2 -2 -2 -2 -1 -1
11 10 10 8 6 5 4 4 3 2 2 2 2 2 2 1 -0 2 2 1 0 -1 -1 -1 -1 -1 -1 -1 -1 -1 -2 -1 -0 -1 -1 -1 -1 -1 -1 -2 -2 -2 -1
11 11 11 11 9 8 6 5 4 4 4 3 3 3 3 3 2 1 2 2 1 1 0 -0 -1 -2 -1 -1 -2 -2 -2 -0 -1 -1 -1 -1 -2 -2 -2 -2 -2 -2 -1
12 11 11 11 11 10 10 7 6 5 5 5 5 5 5 5 4 3 2 3 2 2 1 1 0 -2 -1 -1 -2 -2 -1 -0 -1 -1 -1 -1 -2 -2 -2 -2 -2 -1 -1
12 12 12 12 12 11 10 10 9 7 7 7 7 6 7 7 6 5 4 3 3 3 3 2 1 0 -1 -0 -1 -1 -1 -1 -1 -1 -1 -1 -2 -1 -2 -2 -1 -1 -1
13 13 13 12 12 12 11 11 10 9 9 9 8 8 8 8 7 6 5 4 4 4 4 4 3 3 2 -0 0 -1 -1 -1 -1 -1 -1 -2 -2 -2 -2 -2 -1 -1 -1
13 13 13 13 13 12 11 11 11 10 10 9 9 8 8 8 8 7 6 6 5 4 6 6 5 5 5 2 1 1 -0 -0 -1 -1 -1 -2 -2 -2 -1 -1 -0 -0 -0
14 13 13 13 13 13 12 12 11 10 10 10 10 9 9 9 9 8 8 7 6 5 5 7 6 5 5 4 3 2 2 -0 -0 -1 -1 -1 -2 -2 -1 -1 -0 -0 -0
14 14 13 13 13 13 13 13 12 11 11 11 11 10 10 10 10 9 8 8 7 6 5 5 7 6 5 5 3 4 3 1 0 -0 -1 0 -2 -2 -1 -1 -0 -1 0
15 14 14 14 14 14 14 13 12 12 11 11 11 11 10 10 10 10 9 9 9 7 6 5 5 6 6 5 4 4 4 2 1 0 -1 -1 -1 -2 -2 -1 -1 -1 -0
15 15 15 14 14 15 14 14 13 13 12 12 12 12 11 11 10 10 10 10 9 8 7 6 5 4 5 5 5 4 5 4 2 2 0 -1 -1 -0 -1 -2 -1 -1 -1
15 15 15 15 14 15 14 14 14 13 13 13 12 12 12 11 11 11 11 10 9 8 8 7 6 6 4 4 6 4 4 5 4 3 1 -0 -1 -1 -1 -1 -2 -1 -1
15 15 15 15 15 15 15 14 14 14 14 14 13 13 12 12 12 11 11 11 10 9 10 9 8 7 5 3 5 4 4 5 4 4 4 2 0 -1 -1 -1 -1 -1 -1
16 16 16 15 15 15 15 15 14 14 15 14 14 13 13 12 12 12 12 12 11 11 11 10 9 8 6 6 4 5 5 5 5 4 5 3 1 0 -0 -0 -1 -1 -1
16 16 16 16 16 15 15 15 15 15 15 15 15 14 14 13 13 13 13 13 12 12 12 11 10 9 7 7 4 3 4 5 5 5 5 5 5 3 1 0 -1 -1 -1
17 17 17 16 16 16 15 15 15 15 15 15 15 15 14 14 14 14 14 14 13 12 12 12 12 11 9 8 10 7 5 4 6 6 6 5 5 6 4 2 1 -0 -1
17 17 17 16 16 16 16 16 16 15 15 16 16 16 15 15 14 14 14 14 14 13 13 12 12 12 11 9 9 10 7 6 7 6 7 7 6 6 5 6 3 2 1
17 17 16 16 16 16 16 16 16 16 17 16 16 16 16 15 15 15 15 15 14 14 14 13 12 12 12 12 9 9 8 7 6 9 7 7 6 7 6 6 5 3 2
17 17 16 16 16 16 16 16 17 17 17 17 17 17 17 16 16 16 15 15 15 14 14 14 13 12 12 12 11 10 9 8 7 8 9 9 7 7 7 6 6 6 5
17 17 17 17 16 16 17 17 17 17 17 17 17 17 17 16 16 16 16 16 15 15 15 14 13 12 12 12 11 11 11 10 9 11 11 10 11 8 8 7 7 6 6